[[{"header":{"parameterUnit":"m.s-1","parameterCategory":1,"la1":30.2991,"la2":30.254,"lo1":-89.0895,"lo2":-89.0444,"dy":0.0017,"dx":0.0017,"nx":28,"ny":28,"refTime":"2025-04-02T09:00:00:Z","depth":0,"parameterNumber":2,"parameterNumberName":"U-component_of_WINDS"},"data":[0,0,0,0,0,0,0,0,0,0,0,0,0,0,0,0,0,0,0,0,0,0,0,0,0,0,0,0,0,0,0,0,0,0,0,0,0,0,0,0,0,0,0,0,0,0,0,0,0,0,0,0,0,0,0,0,0,0,-3.0326,-3.0328,0,-3.0442,-3.0443,-3.0444,-3.0476,-3.0475,-3.0474,-3.0474,-3.0593,-3.0596,-3.06,0,0,0,0,0,0,0,0,0,0,0,0,0,-3.0135,-3.0138,-3.0326,-3.0328,-3.0329,-3.0441,-3.0443,-3.0445,-3.0476,-3.0475,-3.0474,-3.0474,-3.0591,-3.0596,-3.06,0,0,0,0,0,0,0,0,0,0,0,0,0,-3.0231,-3.0139,-3.0326,-3.0358,-3.0362,-3.0441,-3.0443,-3.0445,-3.0476,-3.0475,-3.0474,-3.0473,-3.059,-3.0595,-3.0601,-3.0656,0,0,-3.0618,-3.0621,0,0,0,0,0,0,0,0,-3.0225,-3.0238,-3.0352,-3.0356,-3.0361,-3.0443,-3.0419,-3.0516,-3.0476,-3.0433,-3.0474,-3.0473,-3.0544,-3.0553,-3.0577,-3.0662,-3.0667,-3.0619,-3.0622,-3.0625,-3.0626,0,0,0,0,0,0,0,-3.0219,-3.0233,-3.0372,-3.0354,-3.0359,-3.0368,-3.038,-3.0438,-3.0493,-3.0437,-3.0439,-3.0452,-3.0546,-3.0571,-3.058,-3.0669,-3.0619,-3.0624,-3.0627,-3.0629,-3.0805,-3.0806,0,0,0,0,0,0,-3.0206,-3.0227,-3.0368,-3.0375,-3.0289,-3.0372,-3.0386,-3.0418,-3.0492,-3.0502,-3.0453,-3.0453,-3.0562,-3.0573,-3.0584,-3.0654,-3.0625,-3.063,-3.0633,-3.0804,-3.0805,-3.0807,0,0,0,0,0,0,-3.0202,-3.0218,-3.0364,-3.0302,-3.0321,-3.0376,-3.0412,-3.0421,-3.0446,-3.0505,-3.0515,-3.0469,-3.0562,-3.0576,-3.0638,-3.0658,-3.0633,-3.0638,-3.0802,-3.0804,-3.0806,-3.0793,0,0,0,0,0,0,-3.0196,-3.0217,-3.0238,-3.0302,-3.0324,-3.0415,-3.0413,-3.0424,-3.0456,-3.0457,-3.0522,-3.0532,-3.0562,-3.0629,-3.0644,-3.0666,-3.0642,-3.0801,-3.0803,-3.0805,-3.0792,-3.0794,-3.0796,0,0,0,0,0,-3.0189,-3.023,-3.0239,-3.0256,-3.0352,-3.0416,-3.0429,-3.0463,-3.0457,-3.0479,-3.0517,-3.053,-3.0654,-3.0636,-3.0652,-3.0676,-3.0799,-3.0802,-3.0805,-3.0791,-3.0794,-3.0796,0,0,0,0,0,0,-3.0166,-3.0239,-3.0249,-3.0312,-3.0358,-3.0421,-3.045,-3.0465,-3.0513,-3.0512,-3.0553,-3.0567,-3.0626,-3.0658,-3.0636,-3.0734,-3.0727,-3.0733,-3.0711,-3.0714,-3.0716,-3.0707,-3.0647,0,0,0,0,0,-3.0168,-3.0214,-3.0275,-3.0324,-3.0347,-3.0394,-3.0424,-3.0446,-3.0495,-3.0515,-3.0557,-3.0604,-3.0654,-3.0686,-3.0735,-3.0797,-3.0812,-3.0822,-3.0824,-3.0825,-3.083,-3.0866,-3.0871,-3.0816,-3.0816,-3.0816,0,0,-3.0173,-3.0219,-3.0245,-3.0321,-3.0359,-3.0406,-3.041,-3.046,-3.0495,-3.0522,-3.0583,-3.0616,-3.0671,-3.0733,-3.0763,-3.0761,-3.0849,-3.0829,-3.083,-3.0834,-3.0869,-3.0874,-3.0879,-3.0818,-3.0817,-3.0817,0,0,-3.0206,-3.0245,-3.029,-3.0328,-3.0386,-3.0417,-3.0428,-3.049,-3.0513,-3.0574,-3.0596,-3.0639,-3.0724,-3.0763,-3.0793,-3.0842,-3.0856,-3.0857,-3.0868,-3.0902,-3.0907,-3.0911,-3.0928,-3.0933,-3.0862,-3.0862,-3.0862,0,-3.0205,-3.0276,-3.0312,-3.036,-3.0393,-3.042,-3.0466,-3.0502,-3.0573,-3.0595,-3.0592,-3.07,-3.0739,-3.0811,-3.0822,-3.0847,-3.0861,-3.0849,-3.0903,-3.0907,-3.0912,-3.0928,-3.0935,-3.0861,-3.0861,-3.0861,-3.0861,0,-3.0272,-3.0321,-3.0351,-3.0418,-3.0454,-3.0502,-3.0545,-3.0578,-3.0597,-3.0629,-3.0692,-3.074,-3.08,-3.0819,-3.0838,-3.0893,-3.089,-3.0895,-3.0889,-3.0916,-3.0932,-3.0939,-3.0861,-3.0861,-3.0861,-3.0861,0,0,-3.0293,-3.0379,-3.039,-3.0421,-3.0487,-3.0525,-3.0574,-3.0632,-3.0659,-3.0708,-3.075,-3.0821,-3.0826,-3.0861,-3.0885,-3.0915,-3.0951,-3.0916,-3.0918,-3.0921,-3.1015,-3.101,-3.1017,-3.0961,-3.0962,-3.0963,-3.101,0,-3.0333,-3.0421,-3.0454,-3.0526,-3.0572,-3.0598,-3.0641,-3.0686,-3.0718,-3.0762,-3.0797,-3.0847,-3.0849,-3.0871,-3.0902,-3.094,-3.097,-3.0937,-3.1,-3.1002,-3.0984,-3.1026,-3.1021,-3.1063,-3.1016,-3.1018,-3.1018,0,-3.0392,-3.0441,-3.0516,-3.0577,-3.0597,-3.0635,-3.0691,-3.0733,-3.0785,-3.0806,-3.0845,-3.0868,-3.0921,-3.0912,-3.0985,-3.0962,-3.099,-3.1013,-3.1015,-3.1022,-3.1011,-3.1033,-3.1077,-3.1083,-3.1029,-3.1028,-3.1027,0,-3.0399,-3.0484,-3.054,-3.0566,-3.0638,-3.0663,-3.0695,-3.0746,-3.0779,-3.0828,-3.085,-3.0905,-3.0935,-3.0977,-3.1014,-3.1005,-3.1084,-3.1079,-3.1103,-3.1102,-3.1118,-3.1116,-3.1167,-3.1137,-3.1137,-3.1137,-3.1137,0,-3.0441,-3.0486,-3.0544,-3.0578,-3.063,-3.0669,-3.0719,-3.0753,-3.0798,-3.084,-3.0867,-3.0906,-3.0953,-3.0998,-3.1028,-3.1084,-3.1097,-3.1116,-3.1123,-3.1113,-3.1111,-3.1131,-3.1129,-3.1138,-3.1138,-3.1138,-3.1137,0,-3.0457,-3.0498,-3.0561,-3.0624,-3.0641,-3.0676,-3.0731,-3.0765,-3.0798,-3.0851,-3.0866,-3.0918,-3.0972,-3.1014,-3.1084,-3.1104,-3.1164,-3.1172,-3.1146,-3.115,-3.1171,-3.1169,-3.1237,-3.1247,-3.121,-3.1211,-3.1211,0,-3.0481,-3.0516,-3.0583,-3.0613,-3.0644,-3.0692,-3.0725,-3.0765,-3.0799,-3.0862,-3.0889,-3.0946,-3.0993,-3.1079,-3.1123,-3.1177,-3.1187,-3.1207,-3.1195,-3.1184,-3.1187,-3.1184,-3.1188,-3.1208,-3.1208,-3.1208,-3.1208,0,-3.0519,-3.0537,-3.0584,-3.0638,-3.0678,-3.0722,-3.0768,-3.0791,-3.0839,-3.0876,-3.0932,-3.0969,-3.1041,-3.1097,-3.1156,-3.1189,-3.1207,-3.1212,-3.122,-3.121,-3.1194,-3.1203,-3.115,-3.121,-3.121,-3.121,-3.121,-3.1209,-3.0539,-3.0572,-3.0624,-3.0676,-3.0714,-3.0756,-3.0792,-3.0829,-3.0876,-3.0938,-3.0959,-3.1017,-3.1069,-3.115,-3.1184,-3.123,-3.123,-3.1242,-3.1245,-3.1248,-3.1247,-3.1187,-3.1241,-3.1241,-3.1241,-3.1241,-3.1241,0,-3.0578,-3.0613,-3.066,-3.0723,-3.0764,-3.0777,-3.0828,-3.0861,-3.0911,-3.0958,-3.1004,-3.1068,-3.1123,-3.1172,-3.1228,-3.1256,-3.1265,-3.1269,-3.1267,-3.1275,-3.1243,-3.123,-3.126,-3.126,-3.126,-3.126,-3.126,-3.126,-3.0603,-3.0659,-3.0684,-3.0759,-3.0794,-3.085,-3.0878,-3.0917,-3.0955,-3.1025,-3.107,-3.1102,-3.115,-3.121,-3.1261,-3.1274,-3.1293,-3.1295,-3.131,-3.1279,-3.1277,-3.1274,-3.1262,-3.1299,-3.1299,-3.1338,-3.1338,-3.1338]},{"header":{"parameterUnit":"m.s-1","parameterCategory":1,"la1":30.2991,"la2":30.254,"lo1":-89.0895,"lo2":-89.0444,"dy":0.0017,"dx":0.0017,"nx":28,"ny":28,"refTime":"2025-04-02T09:00:00:Z","depth":0,"parameterNumber":3,"parameterNumberName":"V-component_of_WINDS"},"data":[0,0,0,0,0,0,0,0,0,0,0,0,0,0,0,0,0,0,0,0,0,0,0,0,0,0,0,0,0,0,0,0,0,0,0,0,0,0,0,0,0,0,0,0,0,0,0,0,0,0,0,0,0,0,0,0,0,0,7.0519,7.0521,0,7.0676,7.0678,7.068,7.0659,7.0656,7.0653,7.0651,7.0809,7.0816,7.0822,0,0,0,0,0,0,0,0,0,0,0,0,0,7.0202,7.0208,7.0519,7.0521,7.0523,7.0676,7.0678,7.068,7.0659,7.0656,7.0653,7.065,7.0807,7.0815,7.0823,0,0,0,0,0,0,0,0,0,0,0,0,0,7.0347,7.021,7.0519,7.0531,7.0534,7.0675,7.0678,7.0681,7.066,7.0656,7.0652,7.0648,7.0804,7.0814,7.0824,7.0962,0,0,7.0854,7.0858,0,0,0,0,0,0,0,0,7.0339,7.0359,7.0527,7.0531,7.0534,7.0644,7.0624,7.0775,7.0661,7.0612,7.0651,7.0646,7.0757,7.0771,7.0808,7.097,7.0976,7.0855,7.0861,7.0865,7.0868,0,0,0,0,0,0,0,7.0329,7.0352,7.0581,7.053,7.0534,7.0529,7.0545,7.0652,7.0704,7.0616,7.0615,7.0634,7.0758,7.0799,7.0812,7.0979,7.0855,7.0863,7.087,7.0873,7.1265,7.1269,0,0,0,0,0,0,7.0316,7.0344,7.0576,7.0586,7.0425,7.0538,7.0556,7.0612,7.0703,7.0713,7.0637,7.0632,7.0784,7.08,7.0817,7.0988,7.0865,7.0874,7.088,7.1261,7.1266,7.1271,0,0,0,0,0,0,7.0309,7.0337,7.057,7.0465,7.0494,7.0547,7.0611,7.0618,7.0658,7.0719,7.0728,7.0669,7.0782,7.0804,7.0927,7.0993,7.0879,7.0888,7.1255,7.1262,7.1269,7.1329,0,0,0,0,0,0,7.03,7.0334,7.0387,7.0466,7.05,7.0677,7.0615,7.0623,7.0676,7.0671,7.0752,7.0761,7.078,7.0913,7.0937,7.1005,7.0896,7.125,7.1259,7.1266,7.1321,7.1337,7.135,0,0,0,0,0,7.0289,7.0397,7.039,7.0418,7.0567,7.0681,7.07,7.0721,7.0681,7.0735,7.0775,7.0759,7.0982,7.0926,7.0953,7.1024,7.1246,7.1256,7.1266,7.1315,7.1334,7.135,0,0,0,0,0,0,7.0323,7.0407,7.0401,7.0538,7.0603,7.0677,7.0746,7.074,7.0817,7.0809,7.083,7.0849,7.0975,7.1012,7.0947,7.1165,7.1108,7.1124,7.1136,7.1155,7.1169,7.1158,7.0904,0,0,0,0,0,7.0347,7.0433,7.0501,7.0616,7.0649,7.0692,7.0742,7.0753,7.0821,7.0848,7.0896,7.0962,7.1047,7.1103,7.1184,7.1326,7.1345,7.1389,7.1404,7.1415,7.1429,7.151,7.1531,7.1304,7.1304,7.1304,0,0,7.0396,7.0453,7.0505,7.0624,7.0676,7.0765,7.0715,7.081,7.0877,7.0862,7.0983,7.1021,7.1096,7.123,7.1292,7.1265,7.1496,7.1428,7.1437,7.1445,7.1522,7.1544,7.1563,7.1311,7.1309,7.1308,0,0,7.0532,7.0583,7.0685,7.0738,7.0818,7.0847,7.0871,7.0948,7.0973,7.1095,7.1087,7.1166,7.1312,7.1367,7.1414,7.1574,7.1563,7.16,7.1675,7.1754,7.1772,7.1788,7.1847,7.1868,7.1613,7.1613,7.1614,0,7.0583,7.0717,7.0738,7.0836,7.0889,7.0881,7.0986,7.1036,7.1138,7.1175,7.1144,7.1329,7.1379,7.1528,7.1567,7.1605,7.1635,7.1591,7.1768,7.1784,7.1799,7.1856,7.1878,7.1618,7.1617,7.1617,7.1616,0,7.0777,7.0871,7.0943,7.1044,7.1106,7.1206,7.1243,7.1302,7.1308,7.134,7.1466,7.1526,7.1621,7.1657,7.1662,7.1808,7.1789,7.1763,7.1706,7.1825,7.1878,7.19,7.1623,7.1622,7.1621,7.162,0,0,7.0937,7.1051,7.1077,7.1124,7.1213,7.1286,7.1386,7.1481,7.1533,7.1604,7.169,7.1815,7.1793,7.1846,7.1858,7.1927,7.2053,7.1892,7.1894,7.1922,7.2219,7.2239,7.2264,7.2046,7.205,7.2054,7.2213,0,7.1083,7.1263,7.1286,7.1445,7.1533,7.1528,7.1617,7.1681,7.1714,7.1794,7.183,7.192,7.1881,7.1914,7.1982,7.2023,7.2113,7.2012,7.2127,7.2131,7.211,7.2292,7.2313,7.2461,7.2234,7.2238,7.2241,0,7.1277,7.1356,7.1525,7.1604,7.1642,7.1721,7.1811,7.1887,7.196,7.198,7.2041,7.2046,7.2151,7.209,7.2237,7.2167,7.2216,7.2244,7.225,7.2262,7.2194,7.2311,7.2508,7.2531,7.2273,7.2271,7.2268,0,7.138,7.1528,7.1649,7.1689,7.1784,7.184,7.1882,7.1952,7.2008,7.2087,7.2124,7.2213,7.2263,7.2332,7.2361,7.2313,7.2507,7.2447,7.2527,7.2526,7.2568,7.2565,7.2778,7.2597,7.2597,7.2596,7.2596,0,7.1541,7.1645,7.1697,7.1771,7.1888,7.1914,7.2029,7.2069,7.2132,7.2215,7.2215,7.2293,7.2325,7.2408,7.2431,7.255,7.2572,7.2591,7.2597,7.2593,7.259,7.2625,7.2616,7.2602,7.2601,7.26,7.2599,0,7.1676,7.1714,7.1846,7.1927,7.1949,7.2032,7.2101,7.2174,7.2207,7.2312,7.2338,7.239,7.2489,7.2524,7.2642,7.2658,7.2797,7.2793,7.2773,7.2774,7.2852,7.2845,7.3096,7.3131,7.2926,7.2928,7.2929,0,7.1777,7.1857,7.1947,7.2003,7.2048,7.2138,7.2196,7.2225,7.2286,7.2378,7.244,7.2538,7.2618,7.2775,7.2823,7.2915,7.2914,7.2995,7.2927,7.2922,7.2917,7.2913,7.2922,7.3008,7.301,7.3012,7.3013,0,7.1953,7.1969,7.2053,7.2146,7.2216,7.2289,7.2361,7.2407,7.2447,7.2515,7.2617,7.2679,7.2802,7.29,7.2994,7.3037,7.3033,7.3035,7.3058,7.3055,7.3041,7.3052,7.2809,7.3029,7.3027,7.3026,7.3025,7.3025,7.2075,7.2147,7.2223,7.2318,7.2375,7.2443,7.2516,7.256,7.2645,7.2748,7.276,7.2869,7.2943,7.307,7.3118,7.3204,7.3182,7.3215,7.3224,7.3233,7.324,7.3027,7.3221,7.3221,7.322,7.322,7.322,0,7.2253,7.2302,7.2389,7.249,7.2566,7.2556,7.2635,7.2699,7.2796,7.2865,7.2945,7.3063,7.3158,7.3216,7.3312,7.337,7.3371,7.3395,7.3391,7.3402,7.3253,7.3224,7.3393,7.3393,7.3393,7.3393,7.3393,7.3393,7.2354,7.2477,7.2502,7.2654,7.2702,7.2811,7.2857,7.292,7.2977,7.3109,7.3189,7.3226,7.3291,7.3393,7.3481,7.3495,7.3531,7.3558,7.357,7.343,7.3412,7.3395,7.3368,7.3565,7.3565,7.3713,7.3714,7.3715]}]]